Location: Indian Springs
(36.5700°N, 115.6700°W)
Time: 22:58:59
(UTC-07:00)

Amateur Radio Satellites - All Passes

Search period start: 31 August 2015 22:28
Search period end: 01 September 2015 22:28
Location: Indian Springs, 36.5700°N, 115.6700°W

Satellite Date Start Highest point End Downlink Frequencies (MHz)
Time Altitude Azimuth
HUMSAT D 31 Aug 22:38:58 22:43:15 65° 259° (W) 22:47:34 437.325/437.525
DX 1 31 Aug 22:39:12 22:43:30 71° 76° (ENE) 22:47:50 434.975-435.025
50 SAT 31 Aug 22:41:00 22:44:51 51° 75° (ENE) 22:48:43 437.505
ESTCUBE 1 31 Aug 22:48:33 22:52:42 39° 73° (ENE) 22:56:53 437.505/2401.250
Oscar 11 31 Aug 22:50:03 22:51:56 12° 270° (W) 22:53:34 145.826/435.025
AUBIESAT-1 31 Aug 22:50:19 22:52:59 19° 97° (E) 22:55:38 437.475
POLYITAN 1 31 Aug 22:50:34 22:52:31 13° 91° (E) 22:54:43 437.675
UKube-1 31 Aug 22:51:44 22:56:02 89° 77° (ENE) 23:00:23 .
Cosmos 2504 31 Aug 22:52:35 23:00:06 47° 89° (E) 23:08:09 435.465 / 435.565
POPSAT HIP 1 31 Aug 22:53:00 22:55:07 14° 91° (E) 22:57:27 437.405
DUCHIFAT 1 31 Aug 22:53:32 22:55:31 13° 91° (E) 22:57:43 145.980
M-CUBED/EXP-1 PRIME 31 Aug 22:55:15 22:58:33 27° 99° (E) 23:01:40 437.505
SPROUT 31 Aug 23:00:06 23:01:39 12° 67° (ENE) 23:03:26 437.525
AISAT 31 Aug 23:01:21 23:05:44 80° 78° (ENE) 23:10:12 437.250
CUBEBUG 1 31 Aug 23:02:06 23:06:11 44° 74° (ENE) 23:10:20 437.445
QB50P2 31 Aug 23:08:59 23:12:19 22° 94° (E) 23:15:45 145.880/145.840
NANOSAT C BR1 31 Aug 23:09:59 23:13:17 22° 94° (E) 23:16:39 145.865
UNISAT 6 31 Aug 23:16:12 23:20:47 83° 102° (ESE) 23:25:14 437.425
QB50P1 31 Aug 23:23:16 23:27:06 32° 96° (E) 23:30:58 145.935-145.965
VELOX 1 31 Aug 23:29:44 23:34:00 50° 261° (W) 23:38:18 145.980
BEESAT 3 31 Aug 23:31:13 23:34:48 30° 53° (NE) 23:38:22 437.485
CUSAT 1 31 Aug 23:32:22 23:35:33 28° 88° (E) 23:39:39 437.405
BEESAT 2 31 Aug 23:43:23 23:47:00 31° 53° (NE) 23:50:35 435.950
TIGRISAT 31 Aug 23:44:54 23:49:19 48° 286° (WNW) 23:53:35 435.000
DANDE 01 Sep 00:01:14 00:04:11 30° 90° (E) 00:07:56 436.750
TISAT 1 01 Sep 00:01:21 00:05:06 33° 72° (ENE) 00:08:56 437.305
ANTELSAT 01 Sep 00:02:22 00:06:23 30° 289° (WNW) 00:10:14 437.575/2403.000
PCSat 01 Sep 00:19:09 00:20:32 11° 104° (ESE) 00:22:19 145.827
RS-15 01 Sep 00:20:26 00:31:31 45° 47° (NE) 00:43:07 29.354- 29.394
AIST 2 01 Sep 00:20:51 00:23:34 17° 47° (NE) 00:26:22 435.215
ITUPSAT 1 01 Sep 00:24:04 00:24:36 10° 64° (ENE) 00:25:27 437.325
AUBIESAT-1 01 Sep 00:24:33 00:27:45 24° 295° (WNW) 00:30:42 437.475
POLYITAN 1 01 Sep 00:24:35 00:28:43 45° 286° (WNW) 00:32:47 437.675
ESTCUBE 1 01 Sep 00:26:48 00:29:45 17° 268° (W) 00:32:32 437.505/2401.250
POPSAT HIP 1 01 Sep 00:27:09 00:31:15 43° 287° (WNW) 00:35:18 437.405
DUCHIFAT 1 01 Sep 00:27:30 00:31:36 44° 287° (WNW) 00:35:39 145.980
M-CUBED/EXP-1 PRIME 01 Sep 00:30:23 00:33:10 18° 297° (WNW) 00:35:42 437.505
SPROUT 01 Sep 00:33:06 00:37:18 54° 261° (W) 00:41:31 437.525
BUGSAT 1 01 Sep 00:34:29 00:38:41 60° 285° (WNW) 00:42:53 437.445
CUBEBUG 1 01 Sep 00:40:33 00:42:50 14° 269° (W) 00:44:53 437.445
QB50P2 01 Sep 00:44:33 00:48:12 27° 289° (WNW) 00:51:45 145.880/145.840
Cosmos 2504 01 Sep 00:45:16 00:52:33 34° 288° (WNW) 01:00:02 435.465 / 435.565
NANOSAT C BR1 01 Sep 00:45:26 00:49:06 27° 289° (WNW) 00:52:41 145.865
SO-50 01 Sep 00:50:56 00:55:38 67° 118° (ESE) 01:00:30 436.795
BEESAT 01 Sep 00:53:51 00:57:29 23° 69° (ENE) 01:01:14 436.000
QB50P1 01 Sep 00:59:38 01:02:46 19° 291° (WNW) 01:05:45 145.935-145.965
GONETS M04 01 Sep 01:08:41 01:12:04 13° 80° (E) 01:16:11
BEESAT 3 01 Sep 01:09:34 01:12:32 19° 248° (WSW) 01:15:21 437.485
CUSAT 1 01 Sep 01:15:28 01:18:20 18° 296° (WNW) 01:21:36 437.405
SWISSCUBE 01 Sep 01:18:49 01:23:20 45° 73° (ENE) 01:27:54 437.505
BEESAT 2 01 Sep 01:21:52 01:24:51 19° 248° (WSW) 01:27:41 435.950
Oscar 19 01 Sep 01:23:44 01:28:00 26° 95° (E) 01:32:22 437.125/150
TISAT 1 01 Sep 01:38:08 01:40:59 17° 268° (W) 01:43:42 437.305
DANDE 01 Sep 01:46:12 01:47:49 12° 299° (WNW) 01:49:24 436.750
ITUPSAT 1 01 Sep 01:57:09 02:01:55 79° 258° (WSW) 02:06:44 437.325
PCSat 01 Sep 01:57:57 02:03:21 80° 297° (WNW) 02:08:49 145.827
AIST 2 01 Sep 01:58:25 02:02:23 43° 245° (WSW) 02:06:15 435.215
KKS-1 01 Sep 02:02:41 02:05:38 18° 68° (ENE) 02:08:43 437.445
Gurwin Techsat 1B 01 Sep 02:06:28 02:10:17 21° 92° (E) 02:14:16 435.225
ITAMSAT 1 01 Sep 02:23:07 02:27:09 23° 94° (E) 02:31:20 435.822/435.867
BEESAT 01 Sep 02:30:50 02:35:10 33° 263° (W) 02:39:26 436.000
RS-15 01 Sep 02:32:53 02:44:27 56° 248° (WSW) 02:56:11 29.354- 29.394
SO-50 01 Sep 02:33:36 02:36:43 16° 316° (NW) 02:39:44 436.795
JAS-2 01 Sep 02:42:07 02:47:21 24° 89° (E) 02:52:18 435.910
SWISSCUBE 01 Sep 02:58:24 03:01:28 16° 268° (W) 03:04:18 437.505
GONETS M04 01 Sep 02:59:07 03:07:47 84° 96° (E) 03:16:32
Oscar 19 01 Sep 03:02:45 03:07:24 33° 290° (WNW) 03:11:57 437.125/150
STARS 01 Sep 03:18:12 03:22:35 74° 76° (ENE) 03:27:02 437.465
VERMONT LUNAR 01 Sep 03:18:33 03:21:29 54° 155° (SSE) 03:24:24 437.305
KKS-1 01 Sep 03:37:52 03:42:00 37° 262° (W) 03:46:09 437.445
Cosmos 2499 01 Sep 03:40:08 03:47:44 41° 88° (E) 03:55:52 435.465 / 435.565
Gurwin Techsat 1B 01 Sep 03:45:29 03:50:30 43° 288° (WNW) 03:55:28 435.225
PCSat 01 Sep 03:45:33 03:47:46 12° 317° (NW) 03:49:42 145.827
MOZHAYETS 4 01 Sep 03:51:56 03:56:10 38° 73° (ENE) 04:00:27
ITAMSAT 1 01 Sep 04:02:01 04:06:46 37° 289° (WNW) 04:11:28 435.822/435.867
PHONESAT 2.4 01 Sep 04:07:53 04:09:25 13° 144° (SE) 04:11:04 2401.200-2431.200
AO-7 01 Sep 04:09:25 04:17:13 45° 100° (E) 04:25:03 29.400- 29.500
O/OREOS (USA 219) 01 Sep 04:18:40 04:22:35 27° 62° (ENE) 04:26:31 437.305
JAS-2 01 Sep 04:26:12 04:32:54 50° 290° (WNW) 04:38:44 435.910
HORYU 2 01 Sep 04:42:36 04:47:04 80° 101° (E) 04:51:30 437.375
VERMONT LUNAR 01 Sep 04:55:06 04:57:57 42° 351° (N) 05:00:49 437.305
GONETS M04 01 Sep 05:00:06 05:05:55 18° 296° (WNW) 05:11:15
MOZHAYETS 4 01 Sep 05:30:18 05:33:33 18° 268° (W) 05:36:39
Cosmos 2499 01 Sep 05:33:04 05:40:56 40° 287° (WNW) 05:49:03 435.465 / 435.565
PHONESAT 2.4 01 Sep 05:43:33 05:46:56 67° 157° (SSE) 05:50:19 2401.200-2431.200
Cubesat XI-IV 01 Sep 05:45:28 05:47:37 13° 89° (E) 05:50:07 437.490
CUBESAT XI-V 01 Sep 05:46:23 05:50:50 53° 75° (ENE) 05:55:20 437.345
STRAND 1 01 Sep 05:46:25 05:49:17 16° 65° (ENE) 05:52:21 437.568
O/OREOS (USA 219) 01 Sep 05:58:06 06:01:56 25° 257° (WSW) 06:05:38 437.305
AO-7 01 Sep 06:02:25 06:09:55 38° 296° (WNW) 06:17:16 29.400- 29.500
PRISM 01 Sep 06:05:43 06:07:28 13° 67° (ENE) 06:09:25 437.425
CUTE-I 01 Sep 06:28:12 06:33:02 35° 97° (E) 06:37:55 437.470
YUBILEINY 01 Sep 06:31:40 06:35:26 14° 60° (ENE) 06:39:53 435.215
VERMONT LUNAR 01 Sep 06:31:51 06:34:41 40° 8° (N) 06:37:32 437.305
BRITE-PL 01 Sep 07:04:20 07:07:38 16° 90° (E) 07:11:15 437.365/2234.400
Cosmos 2491 01 Sep 07:18:55 07:22:16 13° 80° (E) 07:26:21 435.465 / 435.565
PHONESAT 2.4 01 Sep 07:21:38 07:24:55 44° 353° (N) 07:28:12 2401.200-2431.200
Cubesat XI-IV 01 Sep 07:23:00 07:28:18 68° 286° (WNW) 07:33:35 437.490
STRAND 1 01 Sep 07:23:03 07:28:04 57° 259° (W) 07:33:06 437.568
CUBESAT XI-V 01 Sep 07:26:34 07:28:41 13° 270° (W) 07:30:32 437.345
GOMX 1 01 Sep 07:31:08 07:34:31 17° 90° (E) 07:38:10 467.674
ISS 01 Sep 07:35:41 07:38:10 21° 131° (SE) 07:40:43 145.825
PRISM 01 Sep 07:38:37 07:42:33 45° 261° (W) 07:46:30 437.425
DOVE 4 01 Sep 07:43:40 07:45:44 13° 87° (E) 07:48:09 437.250
AIST 1 01 Sep 07:56:10 08:00:20 61° 95° (E) 08:04:32
VERMONT LUNAR 01 Sep 08:08:16 08:11:12 61° 203° (SSW) 08:14:08 437.305
CUTE-I 01 Sep 08:08:35 08:12:58 26° 292° (WNW) 08:17:15 437.470
CUTE 1.7 + AOD 2 01 Sep 08:19:09 08:21:39 16° 92° (E) 08:24:20 437.475
YUBILEINY 01 Sep 08:25:12 08:34:04 79° 82° (E) 08:42:53 435.215
CINEMA 3 01 Sep 08:25:36 08:27:51 13° 88° (E) 08:30:22 145.822/145.860
CANX-2 01 Sep 08:32:26 08:35:57 26° 95° (E) 08:39:29 2200.000
BRITE-PL 01 Sep 08:41:02 08:46:32 62° 285° (WNW) 08:52:09 437.365/2234.400
HO-68 01 Sep 08:43:15 08:49:57 41° 98° (E) 08:56:41 435.675
Cosmos 2504 01 Sep 08:45:28 08:48:05 12° 58° (ENE) 08:51:21 435.465 / 435.565
SEEDS 01 Sep 08:52:50 08:56:33 31° 96° (E) 09:00:17 437.485
PHONESAT 2.4 01 Sep 08:59:48 09:03:07 48° 10° (N) 09:06:26 2401.200-2431.200
Oscar 11 01 Sep 09:03:39 09:04:31 11° 89° (E) 09:05:40 145.826/435.025
GOMX 1 01 Sep 09:07:38 09:13:00 57° 286° (WNW) 09:18:21 467.674
TIGRISAT 01 Sep 09:08:21 09:08:52 10° 64° (ENE) 09:09:42 435.000
Cosmos 2491 01 Sep 09:09:18 09:18:00 83° 96° (E) 09:26:45 435.465 / 435.565
ISS 01 Sep 09:11:28 09:14:27 32° 325° (NW) 09:17:27 145.825
COMPASS 1 01 Sep 09:13:42 09:17:39 42° 98° (E) 09:21:35 437.405
DOVE 4 01 Sep 09:18:45 09:24:04 70° 285° (WNW) 09:29:17 437.250
ANTELSAT 01 Sep 09:23:14 09:26:02 16° 67° (ENE) 09:29:03 437.575/2403.000
AAUSAT CUBESAT 2 01 Sep 09:23:25 09:27:23 46° 99° (E) 09:31:22 437.432
SO-50 01 Sep 09:25:06 09:29:32 32° 51° (NE) 09:33:53 436.795
AUBIESAT-1 01 Sep 09:34:17 09:37:57 23° 65° (ENE) 09:41:41 437.475
M-CUBED/EXP-1 PRIME 01 Sep 09:39:34 09:43:45 31° 67° (ENE) 09:47:57 437.505
DELFI C3 01 Sep 09:44:21 09:47:18 20° 94° (E) 09:50:19 145.870
ZACube-1 01 Sep 09:45:47 09:49:18 23° 94° (E) 09:52:49 437.345
CUBEBUG 2 01 Sep 09:47:30 09:51:57 44° 98° (E) 09:56:16 437.445
FUNcube-1 01 Sep 09:50:48 09:54:28 25° 94° (E) 09:58:07 145.935
UWE-3 01 Sep 09:53:23 09:57:40 38° 97° (E) 10:01:49 435.000/436.395/437.385
CUTE 1.7 + AOD 2 01 Sep 09:53:51 09:57:44 36° 287° (WNW) 10:01:33 437.475
CINEMA 3 01 Sep 10:00:35 10:05:32 58° 285° (WNW) 10:10:16 145.822/145.860
QB50P2 01 Sep 10:00:53 10:02:50 13° 67° (ENE) 10:05:00 145.880/145.840
NANOSAT C BR1 01 Sep 10:01:37 10:03:23 13° 67° (ENE) 10:05:22 145.865
CANX-2 01 Sep 10:08:25 10:11:45 22° 290° (WNW) 10:14:59 2200.000
CUSAT 1 01 Sep 10:08:26 10:15:27 35° 72° (ENE) 10:22:51 437.405
UNISAT 6 01 Sep 10:12:10 10:16:43 54° 74° (ENE) 10:21:20 437.425
QB50P1 01 Sep 10:14:21 10:17:12 18° 69° (ENE) 10:20:13 145.935-145.965
YUBILEINY 01 Sep 10:24:09 10:30:02 19° 278° (W) 10:35:22 435.215
HUMSAT D 01 Sep 10:26:04 10:29:26 23° 94° (E) 10:32:50 437.325/437.525
SEEDS 01 Sep 10:29:10 10:32:08 18° 291° (WNW) 10:34:58 437.485
HO-68 01 Sep 10:31:09 10:37:35 35° 294° (WNW) 10:43:52 435.675
DX 1 01 Sep 10:31:24 10:33:46 15° 92° (E) 10:36:20 434.975-435.025
Cosmos 2504 01 Sep 10:33:47 10:42:15 72° 81° (E) 10:50:10 435.465 / 435.565
Oscar 11 01 Sep 10:36:53 10:41:07 55° 285° (WNW) 10:45:18 145.826/435.025
PHONESAT 2.4 01 Sep 10:37:43 10:41:02 52° 206° (SSW) 10:44:21 2401.200-2431.200
DANDE 01 Sep 10:40:04 10:47:18 42° 75° (ENE) 10:55:18 436.750
TIGRISAT 01 Sep 10:40:22 10:45:02 77° 258° (WSW) 10:49:45 435.000
UKube-1 01 Sep 10:42:39 10:45:30 18° 93° (E) 10:48:31 .
PCSat 01 Sep 10:48:23 10:53:38 48° 58° (ENE) 10:58:52 145.827
COMPASS 1 01 Sep 10:50:47 10:52:58 14° 292° (WNW) 10:54:59 437.405
AISAT 01 Sep 10:55:21 10:58:24 18° 93° (E) 11:01:37 437.250
ANTELSAT 01 Sep 10:57:56 11:02:27 47° 262° (W) 11:07:01 437.575/2403.000
AAUSAT CUBESAT 2 01 Sep 11:00:43 11:02:36 13° 292° (WNW) 11:04:18 437.432
SO-50 01 Sep 11:05:48 11:09:59 28° 248° (WSW) 11:14:00 436.795
AUBIESAT-1 01 Sep 11:08:05 11:12:26 35° 258° (WSW) 11:16:44 437.475
Cosmos 2491 01 Sep 11:10:18 11:16:08 18° 296° (WNW) 11:21:31 435.465 / 435.565
M-CUBED/EXP-1 PRIME 01 Sep 11:14:24 11:18:28 26° 260° (W) 11:22:26 437.505
POLYITAN 1 01 Sep 11:14:31 11:18:47 85° 257° (WSW) 11:23:07 437.675
DUCHIFAT 1 01 Sep 11:16:47 11:21:00 85° 257° (WSW) 11:25:17 145.980
POPSAT HIP 1 01 Sep 11:16:53 11:21:08 82° 257° (WSW) 11:25:26 437.405
DELFI C3 01 Sep 11:19:01 11:22:21 25° 288° (WNW) 11:25:35 145.870
BUGSAT 1 01 Sep 11:21:47 11:25:48 65° 75° (ENE) 11:29:53 437.445
ZACube-1 01 Sep 11:21:47 11:25:38 28° 289° (WNW) 11:29:20 437.345
VELOX 1 01 Sep 11:22:34 11:26:40 36° 97° (E) 11:30:48 145.980
CUBEBUG 2 01 Sep 11:25:14 11:28:16 17° 293° (WNW) 11:31:04 437.445
FUNcube-1 01 Sep 11:27:00 11:30:42 25° 290° (WNW) 11:34:15 145.935
UWE-3 01 Sep 11:30:43 11:33:53 18° 292° (WNW) 11:36:50 435.000/436.395/437.385
QB50P2 01 Sep 11:34:13 11:38:20 47° 261° (W) 11:42:29 145.880/145.840
NANOSAT C BR1 01 Sep 11:34:42 11:38:49 49° 261° (W) 11:42:58 145.865
QB50P1 01 Sep 11:49:00 11:52:51 33° 263° (W) 11:56:42 145.935-145.965
CUSAT 1 01 Sep 11:50:33 11:58:12 50° 267° (W) 12:05:57 437.405
UNISAT 6 01 Sep 11:51:31 11:53:53 13° 270° (W) 11:56:00 437.425
50 SAT 01 Sep 11:52:40 11:56:31 72° 284° (WNW) 12:00:19 437.505
HUMSAT D 01 Sep 12:01:38 12:05:06 24° 289° (WNW) 12:08:26 437.325/437.525
DX 1 01 Sep 12:06:06 12:10:15 42° 287° (WNW) 12:14:23 434.975-435.025
UKube-1 01 Sep 12:17:48 12:21:45 35° 288° (WNW) 12:25:40 .
ESTCUBE 1 01 Sep 12:19:55 12:24:23 66° 285° (WNW) 12:28:51 437.505/2401.250
SPROUT 01 Sep 12:22:19 12:26:08 30° 96° (E) 12:29:59 437.525
DANDE 01 Sep 12:23:08 12:30:27 42° 268° (W) 12:38:13 436.750
Cosmos 2504 01 Sep 12:27:45 12:33:38 20° 278° (W) 12:38:52 435.465 / 435.565
CUBEBUG 1 01 Sep 12:29:10 12:33:32 62° 285° (WNW) 12:37:54 437.445
AISAT 01 Sep 12:31:00 12:35:06 35° 288° (WNW) 12:39:10 437.250
PCSat 01 Sep 12:32:45 12:36:44 20° 253° (WSW) 12:40:32 145.827
Oscar 19 01 Sep 12:38:11 12:42:36 30° 70° (ENE) 12:47:08 437.125/150
JAS-2 01 Sep 12:54:30 12:56:19 11° 56° (NE) 12:58:44 435.910
VELOX 1 01 Sep 12:59:47 13:02:58 19° 292° (WNW) 13:06:02 145.980
GONETS M04 01 Sep 13:12:46 13:20:41 37° 73° (ENE) 13:28:46
TISAT 1 01 Sep 13:23:09 13:27:27 88° 104° (ESE) 13:31:43 437.305
SWISSCUBE 01 Sep 13:23:09 13:25:28 14° 91° (E) 13:28:03 437.505
Gurwin Techsat 1B 01 Sep 13:25:08 13:29:25 26° 69° (ENE) 13:33:50 435.225
Cosmos 2499 01 Sep 13:37:58 13:40:22 12° 57° (ENE) 13:43:24 435.465 / 435.565
ITAMSAT 1 01 Sep 13:38:45 13:43:05 29° 69° (ENE) 13:47:31 435.822/435.867
JUGNU 01 Sep 13:47:55 13:51:03 15° 177° (S) 13:54:12 437.505
SPROUT 01 Sep 13:58:45 14:02:02 21° 290° (WNW) 14:05:12 437.525
ITUPSAT 1 01 Sep 14:00:31 14:04:46 32° 97° (E) 14:09:02 437.325
ISS 01 Sep 14:05:17 14:07:08 14° 25° (NNE) 14:09:03 145.825
Oscar 19 01 Sep 14:17:28 14:21:56 29° 265° (W) 14:26:21 437.125/150
JAS-2 01 Sep 14:32:33 14:40:00 60° 72° (ENE) 14:47:44 435.910
BEESAT 01 Sep 14:32:52 14:37:38 75° 103° (ESE) 14:42:22 436.000
RS-15 01 Sep 14:43:01 14:51:43 31° 106° (ESE) 15:01:03 29.354- 29.394
BEESAT 3 01 Sep 14:58:17 15:02:18 62° 302° (WNW) 15:06:21 437.485
SWISSCUBE 01 Sep 14:59:04 15:03:41 52° 287° (WNW) 15:08:17 437.505
SRMSAT 01 Sep 14:59:38 15:02:21 13° 173° (S) 15:05:08 437.500
Gurwin Techsat 1B 01 Sep 15:04:27 15:09:16 34° 263° (W) 15:14:04 435.225
AO-7 01 Sep 15:05:32 15:13:25 50° 66° (ENE) 15:21:22 29.400- 29.500
GONETS M04 01 Sep 15:09:27 15:17:40 44° 271° (W) 15:25:47
BEESAT 2 01 Sep 15:11:33 15:15:35 60° 301° (WNW) 15:19:40 435.950
STARS 01 Sep 15:11:34 15:14:17 16° 92° (E) 15:17:12 437.465
ITAMSAT 1 01 Sep 15:17:59 15:22:32 30° 264° (W) 15:27:02 435.822/435.867
Cosmos 2499 01 Sep 15:27:00 15:35:37 70° 80° (E) 15:43:36 435.465 / 435.565
KKS-1 01 Sep 15:31:01 15:35:22 48° 99° (E) 15:39:43 437.445
JUGNU 01 Sep 15:36:27 15:39:17 14° 187° (S) 15:42:04 437.505
HORYU 2 01 Sep 15:38:09 15:42:31 53° 74° (ENE) 15:46:56 437.375
ITUPSAT 1 01 Sep 15:38:42 15:42:30 23° 291° (WNW) 15:46:11 437.325
ISS 01 Sep 15:40:41 15:43:57 81° 219° (SW) 15:47:10 145.825
MOZHAYETS 4 01 Sep 15:52:26 15:52:56 10° 88° (E) 15:53:48
AIST 2 01 Sep 15:53:19 15:57:31 70° 118° (ESE) 16:01:46 435.215
BEESAT 01 Sep 16:13:41 16:14:55 11° 296° (WNW) 16:15:51 436.000
JAS-2 01 Sep 16:19:09 16:25:28 27° 270° (W) 16:31:43 435.910
STARS 01 Sep 16:46:46 16:50:56 39° 287° (WNW) 16:55:02 437.465
SRMSAT 01 Sep 16:47:34 16:50:45 15° 183° (S) 16:53:55 437.500
RS-15 01 Sep 16:52:30 17:03:21 67° 305° (NW) 17:14:39 29.354- 29.394
AO-7 01 Sep 16:58:59 17:06:27 34° 263° (W) 17:13:44 29.400- 29.500
Cubesat XI-IV 01 Sep 17:04:44 17:08:11 18° 66° (ENE) 17:11:50 437.490
KKS-1 01 Sep 17:09:06 17:11:38 15° 293° (WNW) 17:13:58 437.445
HORYU 2 01 Sep 17:17:34 17:19:32 12° 270° (W) 17:21:14 437.375
Cosmos 2499 01 Sep 17:21:50 17:27:57 21° 278° (W) 17:33:25 435.465 / 435.565
MOZHAYETS 4 01 Sep 17:26:09 17:30:41 63° 285° (WNW) 17:35:10
AIST 2 01 Sep 17:34:40 17:36:37 12° 316° (NW) 17:38:23 435.215
CUBESAT XI-V 01 Sep 17:46:38 17:49:26 16° 91° (E) 17:52:28 437.345
CUTE-I 01 Sep 17:47:36 17:52:38 46° 72° (ENE) 17:57:43 437.470
AIST 1 01 Sep 18:07:40 18:09:18 12° 70° (ENE) 18:11:11
BRITE-PL 01 Sep 18:15:25 18:16:18 11° 64° (ENE) 18:17:28 437.365/2234.400
O/OREOS (USA 219) 01 Sep 18:27:58 18:32:18 48° 106° (ESE) 18:36:43 437.305
SRMSAT 01 Sep 18:38:26 18:39:07 10° 192° (SSW) 18:39:42 437.500
GOMX 1 01 Sep 18:38:49 18:40:17 12° 64° (ENE) 18:42:03 467.674
Cubesat XI-IV 01 Sep 18:42:44 18:47:56 52° 260° (W) 18:53:07 437.490
HO-68 01 Sep 19:10:17 19:15:42 25° 62° (ENE) 19:21:21 435.675
RS-15 01 Sep 19:10:30 19:18:41 22° 333° (NNW) 19:26:46 29.354- 29.394
CUBESAT XI-V 01 Sep 19:22:43 19:27:07 42° 287° (WNW) 19:31:30 437.345
Cosmos 2491 01 Sep 19:23:07 19:30:58 37° 73° (ENE) 19:38:58 435.465 / 435.565
PRISM 01 Sep 19:23:18 19:26:47 27° 96° (E) 19:30:21 437.425
CANX-2 01 Sep 19:24:05 19:26:25 15° 68° (ENE) 19:28:57 2200.000
CUTE-I 01 Sep 19:29:10 19:33:00 19° 268° (W) 19:36:38 437.470
YUBILEINY 01 Sep 19:30:33 19:35:21 17° 81° (E) 19:40:43 435.215
STRAND 1 01 Sep 19:35:56 19:40:59 59° 101° (E) 19:46:01 437.568
AIST 1 01 Sep 19:43:08 19:47:19 48° 266° (W) 19:51:30
SEEDS 01 Sep 19:43:18 19:46:01 17° 69° (ENE) 19:48:52 437.485
BRITE-PL 01 Sep 19:49:55 19:54:13 66° 260° (W) 19:58:50 437.365/2234.400
COMPASS 1 01 Sep 20:02:55 20:06:08 22° 71° (ENE) 20:09:26 437.405
O/OREOS (USA 219) 01 Sep 20:09:17 20:12:05 15° 304° (NW) 20:14:43 437.305
AAUSAT CUBESAT 2 01 Sep 20:12:05 20:15:23 23° 71° (ENE) 20:18:45 437.432
GOMX 1 01 Sep 20:13:22 20:17:48 65° 260° (W) 20:22:35 467.674
DOVE 4 01 Sep 20:21:35 20:26:09 89° 74° (ENE) 20:31:05 437.250
ZACube-1 01 Sep 20:40:09 20:42:40 15° 67° (ENE) 20:45:24 437.345
CUBEBUG 2 01 Sep 20:43:12 20:47:08 28° 71° (ENE) 20:51:13 437.445
CUTE 1.7 + AOD 2 01 Sep 20:43:29 20:47:47 72° 259° (W) 20:52:04 437.475
FUNcube-1 01 Sep 20:44:47 20:47:32 17° 68° (ENE) 20:50:29 145.935
UWE-3 01 Sep 20:48:10 20:51:51 25° 70° (ENE) 20:55:41 435.000/436.395/437.385
HO-68 01 Sep 20:55:55 21:02:58 60° 258° (WSW) 21:10:04 435.675
CANX-2 01 Sep 20:57:56 21:02:01 42° 262° (W) 21:06:06 2200.000
PRISM 01 Sep 20:58:58 21:02:05 21° 290° (WNW) 21:05:06 437.425
CINEMA 3 01 Sep 20:59:10 21:03:50 85° 255° (WSW) 21:08:44 145.822/145.860
HUMSAT D 01 Sep 21:16:33 21:18:37 14° 67° (ENE) 21:20:54 437.325/437.525
STRAND 1 01 Sep 21:16:45 21:19:45 15° 295° (WNW) 21:22:31 437.568
SEEDS 01 Sep 21:17:38 21:21:33 35° 263° (W) 21:25:27 437.485
Cosmos 2491 01 Sep 21:19:48 21:27:58 44° 271° (W) 21:36:02 435.465 / 435.565
YUBILEINY 01 Sep 21:22:24 21:31:11 85° 277° (W) 21:40:05 435.215
Oscar 11 01 Sep 21:28:43 21:33:04 82° 77° (ENE) 21:37:26 145.826/435.025
RS-15 01 Sep 21:31:22 21:37:24 15° 9° (N) 21:43:46 29.354- 29.394
UKube-1 01 Sep 21:36:42 21:38:09 12° 66° (ENE) 21:39:50 .
COMPASS 1 01 Sep 21:38:05 21:41:40 26° 265° (W) 21:45:12 437.405
AAUSAT CUBESAT 2 01 Sep 21:47:25 21:50:54 24° 265° (W) 21:54:18 437.432
AISAT 01 Sep 21:52:04 21:53:57 13° 66° (ENE) 21:56:03 437.250
DELFI C3 01 Sep 22:02:38 22:06:38 60° 259° (W) 22:10:38 145.870
UNISAT 6 01 Sep 22:08:35 22:10:40 13° 90° (E) 22:12:59 437.425
ZACube-1 01 Sep 22:14:15 22:18:38 48° 261° (W) 22:23:06 437.345
VELOX 1 01 Sep 22:18:10 22:21:39 24° 70° (ENE) 22:25:15 145.980
FUNcube-1 01 Sep 22:19:11 22:23:30 43° 262° (W) 22:27:53 145.935
CUBEBUG 2 01 Sep 22:19:54 22:23:47 25° 266° (W) 22:27:39 437.445
